12:24
Airports
History
Links
Donate
Help keep this website running!
PayPal
Bitcoin
This page is community maintained. The information is intended for PC simulator navigation or reference.
Always use approved charts for navigation.
1MN1
Beyer
Beyer (1MN1)
Wheaton, Minnesota, United States (56296)
4
Lat/Lng:45° 58' 23.85" N / 96° 33' 51.25" W
45.973293 / -96.564236
Elevation:1000'ft / 305mMSL
ID / ICAO:1MN1
Runways:1
Longest:17-35
Grass 789m / 2,587ft
Nearby Weather12:14 GMT 2017-12-12
Nearby weather at KETH, Wheaton Muni located 13.4 nautical miles from 1MN1
Altimeter: 30.22
Visibility: 10.0 statute miles
Wind: 4 knots (from 180°)
Temp: -9°c / 16°f
Humidity: 78.7%

METAR: KETH 121214Z AUTO 18004KT 10SM OVC025 M09/M12 A3022 RMK AO2

(Powered by phpweather)
Nearby VORs <50NM
Nearby NDBs
Runway 17 / 35
Dimensions:788.6 x 30.5m 2587' x 100'ft
Surface:Grass
Runway 17 [A]Runway 35 [B]
Heading:175°TH 355°TH
Lat:
Lng:
45° 58' 36.66"N
96° 33' 52.54"W
45° 58' 11.05"N
96° 33' 49.96"W
User Notes and Comments
45° 58' 23.85" N / 96° 33' 51.25" W
Distance To
Airport ID:
Nearby Airports
(R) Wetherbee Farm 4.9 NM
1MN0 N 10°
4 Bickerdike Airstrip 7.6 NM
NA34 WSW 255°
4 Traverse Air 8.0 NM
73Y E 99°
(R) Wetenkamp 10.4 NM
29MN ENE 68°
(U) Wheaton Muni 13.4 NM
KETH ( WX ) S 175°
(R) Johnsons Aero Repair 15.9 NM
MY68 SSE 148°
4 Zimmerman 17.8 NM
50MN SE 134°
VFR Chart
Flight Planning at SkyVector.com